Stündliche Wetter Kyzylzhar (Ordabasinskiy rayon)

Heute, 16 Mai, Sonntag

Zeit Temperatur Niederschläge Wind Luftdruck Luftfeuchtigkeit
00:00 +19°C° 0 mm 12 m/S 739 mmHg 29%
01:00 +19°C° 0 mm 12 m/S 739 mmHg 29%
02:00 +18°C° 0 mm 11 m/S 738 mmHg 29%
03:00 +18°C° 0 mm 11 m/S 738 mmHg 30%
04:00 +18°C° 0 mm 11 m/S 738 mmHg 31%
05:00 +17°C° 0 mm 11 m/S 738 mmHg 32%
06:00 +18°C° 0 mm 11 m/S 739 mmHg 32%
07:00 +19°C° 0 mm 11 m/S 739 mmHg 32%
08:00 +21°C° 0 mm 11 m/S 739 mmHg 32%
09:00 +23°C° 0 mm 11 m/S 739 mmHg 29%
10:00 +24°C° 0 mm 11 m/S 739 mmHg 26%
11:00 +27°C° 0 mm 11 m/S 740 mmHg 23%
12:00 +28°C° 0 mm 11 m/S 739 mmHg 21%
13:00 +29°C° 0 mm 11 m/S 739 mmHg 20%
14:00 +31°C° 0 mm 11 m/S 739 mmHg 18%
15:00 +29°C° 0 mm 11 m/S 739 mmHg 19%
16:00 +29°C° 0 mm 11 m/S 739 mmHg 21%
17:00 +29°C° 0 mm 10 m/S 739 mmHg 22%
18:00 +28°C° 0 mm 10 m/S 739 mmHg 23%
19:00 +26°C° 0 mm 10 m/S 739 mmHg 23%
20:00 +24°C° 0 mm 9 m/S 739 mmHg 24%
21:00 +24°C° 0 mm 9 m/S 739 mmHg 24%
22:00 +23°C° 0 mm 9 m/S 738 mmHg 24%
23:00 +23°C° 0 mm 9 m/S 738 mmHg 24%

Morgen, 17 Mai, Montag

Zeit Temperatur Niederschläge Wind Luftdruck Luftfeuchtigkeit
00:00 +22°C° 0 mm 9 m/S 738 mmHg 25%
01:00 +22°C° 0 mm 9 m/S 738 mmHg 26%
02:00 +21°C° 0 mm 9 m/S 738 mmHg 27%
03:00 +21°C° 0 mm 9 m/S 738 mmHg 28%
04:00 +21°C° 0 mm 9 m/S 738 mmHg 29%
05:00 +20°C° 0 mm 8 m/S 738 mmHg 29%
06:00 +22°C° 0 mm 9 m/S 738 mmHg 29%
07:00 +23°C° 0 mm 9 m/S 739 mmHg 29%
08:00 +24°C° 0 mm 9 m/S 739 mmHg 28%
09:00 +27°C° 0 mm 9 m/S 739 mmHg 25%
10:00 +29°C° 0 mm 9 m/S 739 mmHg 22%
11:00 +31°C° 0 mm 9 m/S 739 mmHg 19%
12:00 +32°C° 0 mm 9 m/S 739 mmHg 18%
13:00 +33°C° 0 mm 8 m/S 739 mmHg 17%
14:00 +34°C° 0 mm 8 m/S 738 mmHg 17%
15:00 +33°C° 0 mm 8 m/S 738 mmHg 18%
16:00 +33°C° 0 mm 8 m/S 738 mmHg 19%
17:00 +33°C° 0 mm 7 m/S 738 mmHg 20%
18:00 +29°C° 0 mm 6 m/S 738 mmHg 23%
19:00 +27°C° 0 mm 6 m/S 737 mmHg 27%
20:00 +23°C° 0 mm 5 m/S 737 mmHg 31%
21:00 +23°C° 0 mm 4 m/S 737 mmHg 30%
22:00 +22°C° 0 mm 4 m/S 737 mmHg 28%
23:00 +22°C° 0 mm 4 m/S 737 mmHg 27%

übermorgen, 18 Mai, Dienstag

Zeit Temperatur Niederschläge Wind Luftdruck Luftfeuchtigkeit
00:00 +21°C° 0 mm 4 m/S 736 mmHg 28%
01:00 +21°C° 0 mm 5 m/S 736 mmHg 30%
02:00 +21°C° 0 mm 5 m/S 736 mmHg 31%
03:00 +20°C° 0 mm 5 m/S 736 mmHg 32%
04:00 +20°C° 0 mm 5 m/S 735 mmHg 32%
05:00 +20°C° 0 mm 5 m/S 735 mmHg 33%
06:00 +22°C° 0 mm 5 m/S 736 mmHg 32%
07:00 +25°C° 0 mm 5 m/S 736 mmHg 31%
08:00 +26°C° 0 mm 5 m/S 736 mmHg 30%
09:00 +28°C° 0 mm 5 m/S 736 mmHg 26%
10:00 +30°C° 0 mm 5 m/S 736 mmHg 23%
11:00 +33°C° 0 mm 4 m/S 735 mmHg 19%
12:00 +34°C° 0 mm 4 m/S 735 mmHg 17%
13:00 +35°C° 0 mm 3 m/S 735 mmHg 14%
14:00 +36°C° 0 mm 2 m/S 734 mmHg 12%
15:00 +36°C° 0 mm 2 m/S 734 mmHg 11%
16:00 +36°C° 0 mm 2 m/S 734 mmHg 11%
17:00 +36°C° 0 mm 2 m/S 734 mmHg 10%
18:00 +34°C° 0 mm 2 m/S 734 mmHg 14%
19:00 +30°C° 0 mm 3 m/S 734 mmHg 17%
20:00 +27°C° 0 mm 3 m/S 733 mmHg 21%
21:00 +26°C° 0 mm 3 m/S 733 mmHg 27%
22:00 +25°C° 0 mm 3 m/S 733 mmHg 33%
23:00 +24°C° 0 mm 3 m/S 733 mmHg 38%

19 Mai, Mittwoch

Zeit Temperatur Niederschläge Wind Luftdruck Luftfeuchtigkeit
00:00 +22°C° 0 mm 3 m/S 733 mmHg 37%
01:00 +22°C° 0 mm 3 m/S 733 mmHg 35%
02:00 +21°C° 0 mm 3 m/S 733 mmHg 34%
03:00 +21°C° 0 mm 3 m/S 733 mmHg 33%
04:00 +21°C° 0 mm 3 m/S 733 mmHg 32%
05:00 +20°C° 0 mm 3 m/S 733 mmHg 32%
06:00 +22°C° 0 mm 3 m/S 733 mmHg 30%
07:00 +25°C° 0 mm 3 m/S 733 mmHg 28%
08:00 +28°C° 0 mm 3 m/S 734 mmHg 26%
09:00 +30°C° 0 mm 2 m/S 734 mmHg 23%
10:00 +31°C° 0 mm 1 m/S 733 mmHg 20%
11:00 +33°C° 0 mm 1 m/S 733 mmHg 18%
12:00 +34°C° 0 mm 1 m/S 733 mmHg 15%
13:00 +36°C° 0 mm 2 m/S 733 mmHg 13%
14:00 +37°C° 0 mm 2 m/S 733 mmHg 10%
15:00 +37°C° 0 mm 2 m/S 733 mmHg 10%
16:00 +37°C° 0 mm 2 m/S 732 mmHg 10%
17:00 +37°C° 0 mm 2 m/S 732 mmHg 9%
18:00 +35°C° 0 mm 2 m/S 732 mmHg 12%
19:00 +31°C° 0 mm 2 m/S 732 mmHg 14%
20:00 +28°C° 0 mm 2 m/S 732 mmHg 17%
21:00 +27°C° 0 mm 2 m/S 733 mmHg 23%
22:00 +25°C° 0 mm 3 m/S 733 mmHg 29%
23:00 +24°C° 0 mm 3 m/S 733 mmHg 35%

20 Mai, Donnerstag

Zeit Temperatur Niederschläge Wind Luftdruck Luftfeuchtigkeit
00:00 +23°C° 0 mm 4 m/S 733 mmHg 35%
01:00 +23°C° 0 mm 5 m/S 733 mmHg 36%
02:00 +22°C° 0 mm 5 m/S 733 mmHg 37%
03:00 +22°C° 0 mm 5 m/S 734 mmHg 40%
04:00 +22°C° 0 mm 6 m/S 734 mmHg 43%
05:00 +21°C° 0 mm 6 m/S 734 mmHg 47%
06:00 +23°C° 0 mm 6 m/S 734 mmHg 45%
07:00 +24°C° 0 mm 7 m/S 735 mmHg 42%
08:00 +27°C° 0 mm 7 m/S 735 mmHg 40%
09:00 +28°C° 0 mm 7 m/S 735 mmHg 36%
10:00 +30°C° 0 mm 7 m/S 736 mmHg 32%
11:00 +33°C° 0 mm 7 m/S 736 mmHg 28%
12:00 +34°C° 0 mm 7 m/S 736 mmHg 26%
13:00 +35°C° 0 mm 6 m/S 736 mmHg 24%
14:00 +36°C° 0 mm 6 m/S 736 mmHg 22%
15:00 +34°C° 0 mm 7 m/S 735 mmHg 25%
16:00 +33°C° 0 mm 8 m/S 735 mmHg 28%
17:00 +32°C° 0 mm 9 m/S 735 mmHg 31%
18:00 +29°C° 0.4 mm 8 m/S 735 mmHg 38%
19:00 +26°C° 0.4 mm 7 m/S 736 mmHg 45%
20:00 +23°C° 0.4 mm 6 m/S 736 mmHg 53%
21:00 +23°C° 0.1 mm 7 m/S 736 mmHg 51%
22:00 +23°C° 0.1 mm 8 m/S 736 mmHg 48%
23:00 +23°C° 0.1 mm 9 m/S 736 mmHg 46%

21 Mai, Freitag

Zeit Temperatur Niederschläge Wind Luftdruck Luftfeuchtigkeit
00:00 +22°C° 0 mm 8 m/S 736 mmHg 47%
01:00 +22°C° 0 mm 8 m/S 736 mmHg 48%
02:00 +21°C° 0 mm 8 m/S 735 mmHg 49%
03:00 +21°C° 0 mm 8 m/S 736 mmHg 45%
04:00 +19°C° 0 mm 9 m/S 736 mmHg 41%
05:00 +18°C° 0 mm 10 m/S 736 mmHg 37%
06:00 +19°C° 0 mm 10 m/S 736 mmHg 37%
07:00 +21°C° 0 mm 10 m/S 737 mmHg 36%
08:00 +22°C° 0 mm 10 m/S 737 mmHg 36%
09:00 +24°C° 0 mm 11 m/S 737 mmHg 33%
10:00 +26°C° 0 mm 11 m/S 737 mmHg 31%
11:00 +28°C° 0 mm 11 m/S 737 mmHg 29%
12:00 +29°C° 0 mm 11 m/S 736 mmHg 27%
13:00 +31°C° 0 mm 10 m/S 736 mmHg 25%
14:00 +33°C° 0 mm 10 m/S 736 mmHg 23%
15:00 +32°C° 0 mm 10 m/S 736 mmHg 22%
16:00 +32°C° 0 mm 10 m/S 736 mmHg 22%
17:00 +32°C° 0 mm 10 m/S 736 mmHg 21%
18:00 +29°C° 0 mm 10 m/S 736 mmHg 20%
19:00 +28°C° 0 mm 10 m/S 736 mmHg 18%
20:00 +26°C° 0 mm 9 m/S 736 mmHg 17%
21:00 +26°C° 0 mm 10 m/S 736 mmHg 17%
22:00 +24°C° 0 mm 10 m/S 736 mmHg 17%
23:00 +23°C° 0 mm 10 m/S 736 mmHg 17%
Mehr zeigen

Wir brauchen deine Erlaubnis

Meteoprog und unser Service Anbieter werden persönliche Daten aufbewahren, so wie Cookies, Geräte Bezeichnung oder ähnliche Technologien von deinem Gerät und Prozess, so wie Persönliche Daten Inhalte und Werbungen, genauso wie social Media und den Verkehr zu analysieren.

  • Aufbewahrung und/oder Zugang zu deiner Geräte Informationen.

    Cookies, Geräte Bezeichnung oder andere Informationen, können aufbewahrt oder Zugang zu deinem Gerät erhalten, für den Grund, der oben angegeben wird.

  • Personalisierte Werbung und Inhalte, Messungen, Einblick in das Publikum und Produkt Entwicklung.

    Werbungen und Inhalte können personalisiert werden, basierend auf ein Profil. Mehr Daten können besser personalisierte Werbungen und Inhalte hinzufügen. Werbung und Inhalte können gezeigt und gemessen werden. Einblicke über das Publikum, welche die Werbung gesehen haben und den Inhalt, können abgeleitet werden. So wie Daten können genutzt werden, um es zu verbessern oder die Benutzer Erfahrung zu verbessern das System und die Software.

Wenn du “Ich stimme zu” klickst, erlaubst du uns, die Cookies zu benutzen die Geräte Bezeichnung, den Web oder ähnliche Technologien zu benutzen. Deine Settings, können in deinem Gerät bei deinem Browser geändert werden.

Für den bestimmten Zweck, berechtigten Interessen beruhen darauf, mehr als auf den Inhalt. Du kannst mehr darüber in unseren Privaten und Cookie Politik lesen.